Probability
0 0 0 0 0 0 0 0 0 0 0 0 0 0 0 0 0 0 0 0 0 0 0 0 0 1 2 3 3 4 3 1 0 0 0 0 0 0
0 0 0 0 0 0 0 0 0 0 0 0 0 0 0 0 0 0 0 0 0 0 0 0 0 0 1 2 3 3 3 2 1 0 0 0 0 0
0 0 0 0 0 0 0 0 0 0 0 0 0 0 0 0 0 0 0 0 0 0 0 0 0 0 0 0 1 2 2 2 2 1 0 0 0 0
0 0 0 0 0 0 0 0 0 0 0 0 0 0 0 0 0 0 0 0 0 0 0 0 0 0 0 0 0 0 0 1 2 2 1 0 0 0
0 0 0 0 0 0 0 0 0 0 0 0 0 0 0 0 0 0 0 0 0 0 0 0 0 0 0 0 0 0 0 0 1 1 1 0 0 0
0 0 0 0 0 0 0 0 0 0 0 0 0 0 0 0 0 0 0 0 0 0 0 0 0 0 0 0 0 0 0 0 0 0 0 0 0 0
0 0 0 0 0 0 0 0 0 0 0 0 0 0 0 0 0 0 0 0 0 0 0 0 0 0 0 0 0 0 0 0 0 0 0 0 0 0
0 0 0 0 0 0 0 0 0 0 0 0 0 0 0 0 0 0 0 0 0 0 0 0 0 0 0 0 0 0 0 0 0 0 0 0 0 0
0 0 0 0 0 0 0 0 0 0 0 0 0 0 0 0 0 0 0 0 0 0 0 0 0 0 0 0 0 0 0 0 0 0 0 0 0 0
0 0 0 0 0 0 0 0 0 0 0 0 0 0 0 0 0 0 0 0 0 0 0 0 0 0 0 0 0 0 0 0 0 0 0 0 0 0
0 0 0 0 0 0 0 0 0 0 0 0 0 0 0 0 0 0 0 0 0 0 0 0 0 0 0 0 0 0 0 0 0 0 0 0 0 0
0 0 0 0 0 0 0 0 0 0 0 0 0 0 0 0 0 0 0 0 0 0 0 0 0 0 0 0 0 0 0 0 0 0 0 0 0 0
0 0 0 0 0 0 0 0 0 0 0 0 0 0 0 0 0 0 0 0 0 0 0 0 0 0 0 0 0 0 0 0 0 0 0 0 0 0
0 0 0 0 0 0 0 0 0 0 0 0 0 0 0 0 0 0 0 0 0 0 0 0 0 0 0 0 0 0 0 0 0 0 0 0 0 0
0 0 0 0 0 0 0 0 0 0 0 0 0 0 0 0 0 0 0 0 0 0 0 0 0 0 0 0 0 0 0 0 0 0 0 0 0 0
0 0 0 0 0 0 0 0 0 0 0 0 0 0 0 0 0 0 0 0 0 0 0 0 0 0 0 0 0 0 0 0 0 0 0 0 0 0
0 0 0 0 0 0 0 0 0 0 0 0 0 0 0 0 0 0 0 0 0 0 0 0 0 0 0 0 0 0 0 0 0 0 0 0 0 0
0 0 0 0 0 0 0 0 0 0 0 0 0 0 0 0 0 0 0 0 0 0 0 0 0 0 0 0 0 0 0 0 0 0 0 0 0 0
0 0 0 0 0 0 0 0 0 0 0 0 0 0 0 0 0 0 0 0 0 0 0 0 0 0 0 0 0 0 0 0 0 0 0 0 0 0
0 0 0 0 0 0 0 0 0 0 0 0 0 0 0 0 0 0 0 0 0 0 0 0 0 0 0 0 0 0 0 0 0 0 0 0 0 0
0 0 0 0 0 0 0 0 0 0 0 0 0 0 0 0 0 0 0 0 0 0 0 0 0 0 0 0 0 0 0 0 0 0 0 0 0 0
0 0 0 0 0 0 0 0 0 0 0 0 0 0 0 0 0 0 0 0 0 0 0 0 0 0 0 0 0 0 0 0 0 0 0 0 0 0
0 0 0 0 0 0 0 0 0 0 0 0 0 0 0 0 0 0 0 0 0 0 0 0 0 0 0 0 0 0 0 0 0 0 0 0 0 0
Wind_Speed
1 1 1 1 1 2 2 2 2 2 2 2 2 2 2 2 4 4 5 8 11 13 14 15 15 16 16 17 17 17 16 16 16 16 17 17 17 17
1 1 2 1 2 1 2 2 3 3 3 2 2 2 3 4 4 4 5 8 10 11 13 14 15 15 16 16 16 16 16 16 16 16 16 16 16 16
3 2 3 2 2 2 1 2 2 3 4 3 2 2 2 3 3 3 4 5 5 10 12 13 14 15 15 16 16 16 16 16 16 17 17 17 17 16
3 3 3 2 2 2 2 2 2 3 3 4 3 2 3 3 3 4 4 4 4 8 11 13 14 15 15 15 16 16 17 17 17 17 17 18 18 18
3 3 3 3 3 2 2 2 2 3 3 3 3 2 2 2 2 3 4 3 4 6 9 11 13 14 15 15 15 16 16 17 17 17 17 17 18 18
3 3 3 3 3 3 3 3 3 2 2 3 3 2 2 2 2 2 3 2 3 4 5 6 9 12 14 14 15 15 16 16 17 17 17 17 17 18
4 3 3 4 5 4 3 3 3 2 2 3 3 3 3 2 2 2 3 3 4 3 3 3 4 5 7 11 14 16 16 16 17 18 18 18 18 18
4 4 4 4 6 7 7 5 3 3 3 3 3 4 5 4 3 3 3 2 3 2 2 4 3 5 5 6 10 14 16 17 17 18 19 19 19 19
3 3 4 4 6 4 6 7 4 5 5 4 5 5 5 4 3 4 4 4 4 2 2 4 3 5 5 6 11 13 15 16 17 18 19 20 20 20
3 3 3 4 4 4 3 4 4 3 4 3 4 5 6 5 5 5 5 4 4 3 3 4 3 4 4 5 10 13 14 16 17 18 19 20 20 20
4 3 3 4 7 7 4 4 5 4 4 5 5 7 8 9 6 3 3 4 4 3 3 4 3 3 3 5 6 11 13 14 16 17 18 18 19 19
3 3 5 5 7 6 3 3 5 5 4 5 5 6 6 6 6 4 4 4 3 3 3 3 2 2 3 3 3 4 7 10 13 15 16 17 17 13
3 3 3 6 7 7 5 3 6 6 4 4 4 5 4 3 3 3 4 4 5 4 3 3 2 3 3 2 2 3 4 5 6 9 13 16 18 16
4 3 4 6 7 7 5 6 8 6 2 3 3 4 4 4 3 4 4 5 6 6 5 4 3 3 4 4 4 3 3 4 5 6 6 10 14 17
4 5 5 5 6 5 7 8 6 2 2 3 3 4 3 4 4 3 4 4 5 5 5 5 5 5 5 5 4 3 3 4 5 6 6 7 8 8
2 2 3 4 3 4 5 4 3 2 2 3 4 4 3 3 3 3 3 3 3 4 4 5 6 6 6 6 5 5 5 4 3 5 6 6 7 8
2 2 2 3 4 4 3 4 3 3 2 2 3 4 4 4 4 3 2 3 3 4 4 3 4 5 7 6 6 6 6 5 5 5 5 6 6 7
5 3 2 3 3 4 4 4 3 3 3 3 3 3 4 4 4 3 3 3 5 5 5 4 3 3 3 5 8 7 6 6 5 5 5 6 7 6
5 3 3 3 3 3 3 3 3 4 4 4 4 4 4 4 4 4 4 4 5 5 5 4 3 3 5 6 5 8 7 5 4 5 5 6 6 6
5 4 4 4 4 4 4 4 4 5 5 6 5 5 5 5 5 5 5 5 6 6 5 4 4 5 6 6 4 4 9 7 5 6 5 4 3 3
5 4 4 4 4 4 4 5 5 5 6 6 6 7 6 6 6 6 6 8 7 6 7 6 5 6 4 3 5 4 4 8 8 6 5 4 3 3
3 3 3 3 3 4 4 4 4 4 5 5 5 6 6 6 7 8 8 7 7 7 8 6 5 3 3 5 7 7 5 4 6 8 8 6 5 6
2 2 2 3 3 3 3 3 4 3 4 4 4 5 6 6 6 7 8 8 8 8 8 7 5 4 5 6 7 7 7 5 3 4 4 5 6 5
Wind_Direction
310 304 282 268 257 236 220 208 207 246 268 267 273 281 262 253 247 238 240 243 236 230 228 227 227 225 223 222 222 221 220 220 217 213 212 214 216 213
313 313 302 277 273 255 233 227 218 216 248 258 251 275 284 278 261 246 243 250 246 239 233 229 228 227 224 221 219 217 216 216 215 214 213 213 214 212
333 322 306 294 288 277 250 229 225 218 245 265 256 265 266 277 286 266 252 242 246 242 237 233 229 228 226 222 219 216 214 213 213 213 212 212 211 210
318 317 308 307 295 282 267 247 233 224 232 258 266 263 259 270 275 275 267 256 245 248 242 237 231 228 227 225 221 217 214 212 211 211 212 212 212 210
296 298 300 302 293 284 274 265 252 244 231 245 265 259 264 271 277 275 267 261 256 253 247 240 232 227 225 224 222 219 215 213 211 210 209 211 211 210
294 286 287 278 270 273 269 258 247 245 243 249 260 268 267 270 262 269 279 262 265 262 251 243 235 230 227 224 221 219 217 214 211 210 209 208 207 206
317 309 299 298 292 287 276 258 236 232 242 250 261 266 268 263 253 248 263 279 268 243 247 242 234 232 226 226 224 221 218 215 213 210 209 208 206 205
312 316 313 319 330 335 333 314 254 234 239 242 252 263 266 256 252 249 253 268 274 246 234 252 225 238 232 224 223 219 217 216 213 211 210 208 206 206
289 302 314 322 333 327 331 339 326 296 261 245 253 258 259 250 248 254 247 244 247 251 247 263 233 243 239 232 225 222 220 218 215 213 213 210 208 206
275 273 284 301 312 324 323 327 319 303 287 263 249 260 262 260 247 251 256 261 259 247 222 251 238 241 243 235 229 224 222 220 218 216 214 212 209 207
279 272 272 282 305 325 326 318 316 308 294 283 276 282 283 279 266 252 248 251 263 250 211 232 244 244 246 242 233 226 226 224 221 218 216 213 209 206
287 282 277 280 297 315 310 304 305 301 308 313 309 306 299 293 283 249 241 248 256 260 221 214 231 229 265 248 233 226 228 231 226 222 217 212 206 207
270 280 280 294 301 309 307 275 278 287 292 297 302 304 304 298 287 258 238 239 248 253 232 209 229 218 239 271 267 235 225 229 227 227 222 214 206 203
242 253 271 297 305 310 308 298 300 302 289 295 298 299 298 296 291 280 265 251 246 254 254 230 236 233 243 255 259 253 236 229 226 227 222 213 211 207
234 252 281 310 322 320 318 319 319 308 296 295 295 292 284 282 289 291 284 273 264 258 255 243 243 248 247 253 253 245 253 241 225 227 222 214 211 205
239 309 343 352 346 322 322 329 325 294 281 280 286 288 293 294 290 287 289 297 289 279 258 245 241 241 250 251 251 253 240 239 228 224 225 224 213 207
108 61 32 11 359 350 341 330 326 330 317 292 288 295 300 300 296 290 278 281 276 284 289 275 249 242 246 248 252 249 244 242 235 224 223 231 226 214
91 65 36 11 353 343 338 333 329 334 324 311 306 300 302 303 302 297 282 281 282 280 278 276 276 281 265 249 230 243 244 241 237 225 223 229 233 220
70 55 35 14 359 348 342 338 333 332 326 325 322 320 315 309 304 301 297 290 287 284 278 268 255 262 275 280 253 218 228 235 229 230 228 228 234 223
54 48 32 19 9 4 3 1 359 360 1 358 353 347 339 330 322 314 306 299 295 292 286 270 250 249 258 270 271 246 217 224 228 235 234 231 239 223
45 40 29 21 15 13 14 14 14 12 6 2 359 354 348 341 334 328 320 311 302 295 291 285 266 251 257 260 262 259 237 220 222 226 219 215 218 207
40 35 24 17 16 19 14 13 15 11 5 2 354 349 345 342 337 333 329 325 318 307 298 293 284 264 247 254 263 263 256 238 229 229 223 208 199 205
18 14 5 357 358 2 2 359 1 356 353 350 347 344 342 339 335 331 329 326 321 319 317 310 299 271 261 260 266 266 257 242 220 220 230 234 235 238